Radiation Dose at Monitoring Post of Fukushima Daini Nuclear Power Station
Date,Time,MP-1(microSv/h),MP-2(microSv/h),MP-3(microSv/h),MP-4(microSv/h),MP-5(microSv/h),MP-6(microSv/h),MP-7(microSv/h),Wind Direction,Wind Velocity(m/s),Rain
2017/06/20,00:00,0.352,0.218,0.358,0.333,0.320,0.177,0.110,north,3.3,No
2017/06/20,00:10,0.350,0.218,0.359,0.334,0.323,0.176,0.110,north,3.8,No
2017/06/20,00:20,0.352,0.217,0.359,0.335,0.320,0.177,0.110,north,3.2,No
2017/06/20,00:30,0.350,0.217,0.358,0.333,0.323,0.177,0.110,north,2.5,No
2017/06/20,00:40,0.351,0.217,0.357,0.334,0.321,0.177,0.110,north,1.9,No
2017/06/20,00:50,0.352,0.217,0.358,0.333,0.322,0.176,0.109,north,1.6,No
2017/06/20,01:00,0.352,0.218,0.358,0.334,0.321,0.177,0.110,north,1.5,No
2017/06/20,01:10,0.351,0.217,0.358,0.333,0.319,0.176,0.110,north,1.9,No
2017/06/20,01:20,0.351,0.218,0.360,0.335,0.322,0.176,0.110,north-northwest,1.0,No
2017/06/20,01:30,0.352,0.217,0.358,0.335,0.320,0.176,0.109,north,1.1,No
2017/06/20,01:40,0.350,0.218,0.359,0.333,0.322,0.175,0.109,northwest,1.5,No
2017/06/20,01:50,0.350,0.219,0.357,0.335,0.322,0.176,0.110,northwest,1.2,No
2017/06/20,02:00,0.351,0.217,0.358,0.333,0.322,0.177,0.110,north-northwest,0.6,No
2017/06/20,02:10,0.350,0.218,0.359,0.335,0.322,0.177,0.110,north-northwest,0.5,No
2017/06/20,02:20,0.352,0.217,0.358,0.335,0.321,0.177,0.110,-,CALM,No
2017/06/20,02:30,0.349,0.217,0.359,0.333,0.323,0.176,0.109,-,CALM,No
2017/06/20,02:40,0.352,0.216,0.357,0.336,0.320,0.177,0.110,-,CALM,No
2017/06/20,02:50,0.351,0.218,0.359,0.334,0.322,0.176,0.110,north-northwest,0.8,No
2017/06/20,03:00,0.350,0.217,0.359,0.335,0.321,0.177,0.110,-,CALM,No
2017/06/20,03:10,0.352,0.218,0.358,0.333,0.321,0.177,0.111,-,CALM,No
2017/06/20,03:20,0.350,0.218,0.359,0.333,0.322,0.176,0.110,-,CALM,No
2017/06/20,03:30,0.353,0.216,0.358,0.335,0.321,0.177,0.110,southwest,1.0,No
2017/06/20,03:40,0.349,0.217,0.358,0.332,0.323,0.176,0.110,southwest,0.7,No
2017/06/20,03:50,0.352,0.217,0.359,0.335,0.321,0.175,0.111,south-southwest,1.0,No
2017/06/20,04:00,0.352,0.217,0.358,0.334,0.321,0.177,0.110,southwest,0.7,No
2017/06/20,04:10,0.350,0.218,0.359,0.333,0.323,0.177,0.111,south-southwest,0.9,No
2017/06/20,04:20,0.353,0.217,0.358,0.335,0.321,0.175,0.110,south-southwest,0.9,No
2017/06/20,04:30,0.350,0.218,0.360,0.334,0.325,0.178,0.111,south,1.5,No
2017/06/20,04:40,0.352,0.218,0.359,0.335,0.321,0.176,0.110,south,1.4,No
2017/06/20,04:50,0.350,0.217,0.358,0.334,0.323,0.176,0.111,south,2.4,No
2017/06/20,05:00,0.350,0.217,0.358,0.334,0.321,0.177,0.111,south,2.5,No
2017/06/20,05:10,0.351,0.217,0.357,0.335,0.322,0.177,0.111,south-southwest,3.2,No
2017/06/20,05:20,0.349,0.218,0.359,0.334,0.323,0.177,0.110,south,2.8,No
2017/06/20,05:30,0.352,0.218,0.358,0.335,0.321,0.176,0.110,south,3.2,No
2017/06/20,05:40,0.351,0.217,0.358,0.335,0.321,0.176,0.110,south,2.8,No
2017/06/20,05:50,0.351,0.217,0.358,0.333,0.321,0.177,0.111,south,1.8,No
2017/06/20,06:00,0.350,0.216,0.357,0.336,0.320,0.176,0.109,south-southeast,0.7,No
2017/06/20,06:10,0.350,0.218,0.358,0.333,0.321,0.175,0.109,south,1.1,No
2017/06/20,06:20,0.352,0.216,0.357,0.335,0.320,0.177,0.110,south,1.9,No
2017/06/20,06:30,0.351,0.217,0.358,0.334,0.322,0.176,0.109,south,2.5,No
2017/06/20,06:40,0.351,0.217,0.357,0.334,0.321,0.176,0.110,south,2.0,No
2017/06/20,06:50,0.350,0.217,0.357,0.332,0.324,0.176,0.110,south,2.2,No
2017/06/20,07:00,0.353,0.217,0.358,0.334,0.320,0.176,0.110,south,2.8,No
2017/06/20,07:10,0.351,0.216,0.358,0.331,0.323,0.176,0.110,south,2.5,No
2017/06/20,07:20,0.350,0.218,0.355,0.334,0.321,0.177,0.111,south,1.9,No
2017/06/20,07:30,0.352,0.217,0.358,0.331,0.323,0.175,0.109,south,1.9,No
2017/06/20,07:40,0.349,0.216,0.354,0.332,0.323,0.176,0.110,south-southeast,1.9,No
2017/06/20,07:50,0.352,0.218,0.355,0.335,0.318,0.176,0.111,south,2.1,No
2017/06/20,08:00,0.349,0.217,0.357,0.331,0.323,0.175,0.110,south-southeast,1.4,No
2017/06/20,08:10,0.349,0.215,0.355,0.334,0.320,0.176,0.109,south-southeast,2.4,No
2017/06/20,08:20,0.350,0.218,0.354,0.335,0.323,0.176,0.109,south-southeast,2.3,No
2017/06/20,08:30,0.349,0.218,0.359,0.331,0.323,0.175,0.108,southeast,2.3,No
2017/06/20,08:40,0.352,0.216,0.355,0.333,0.319,0.177,0.109,south-southeast,2.8,No
2017/06/20,08:50,0.351,0.217,0.355,0.335,0.322,0.175,0.108,southeast,3.0,No
2017/06/20,09:00,0.347,0.219,0.360,0.334,0.323,0.175,0.108,south-southeast,3.1,No
2017/06/20,09:10,0.351,0.218,0.358,0.330,0.321,0.177,0.109,southeast,2.9,No
2017/06/20,09:20,0.351,0.216,0.355,0.333,0.320,0.176,0.108,south-southeast,2.8,No
2017/06/20,09:30,0.350,0.216,0.359,0.334,0.322,0.175,0.109,south-southeast,3.1,No
2017/06/20,09:40,0.347,0.218,0.356,0.334,0.322,0.177,-,southeast,3.0,No
2017/06/20,09:50,0.353,0.219,0.361,0.332,0.318,0.176,-,south-southeast,3.7,No
2017/06/20,10:00,0.354,0.217,0.359,0.331,0.323,0.176,-,south-southeast,4.0,No
2017/06/20,10:10,0.350,0.217,0.355,0.336,0.323,0.177,-,south-southeast,3.9,No
2017/06/20,10:20,0.346,0.219,0.360,0.337,0.322,0.176,-,south-southeast,3.6,No
2017/06/20,10:30,0.349,0.218,0.360,0.333,0.319,0.175,-,south-southeast,3.9,No
2017/06/20,10:40,0.353,0.216,0.356,0.331,0.324,0.176,-,south-southeast,4.2,No
2017/06/20,10:50,0.351,0.216,0.354,0.335,0.322,0.176,-,south,4.7,No
2017/06/20,11:00,0.350,0.220,0.359,0.336,0.322,0.176,-,south-southeast,4.7,No
2017/06/20,11:10,0.348,0.218,0.360,0.335,0.321,0.176,-,south,4.7,No
2017/06/20,11:20,0.349,0.217,0.357,0.332,0.325,0.177,-,south-southeast,5.1,No
2017/06/20,11:30,0.355,0.217,0.355,0.332,0.324,0.177,-,south-southeast,6.0,No
2017/06/20,11:40,0.354,0.220,0.355,0.335,0.321,0.177,-,south-southeast,5.8,No
2017/06/20,11:50,0.350,0.218,0.360,0.337,0.322,0.176,-,south,7.0,No
2017/06/20,12:00,0.349,0.217,0.359,0.335,0.325,0.178,-,south-southeast,6.6,No
2017/06/20,12:10,0.349,0.219,0.356,0.333,0.324,0.177,-,south,7.8,No
2017/06/20,12:20,0.354,0.219,0.355,0.334,0.322,0.177,-,south,7.0,No
2017/06/20,12:30,0.352,0.218,0.361,0.339,0.321,0.177,-,south,6.4,No
2017/06/20,12:40,0.349,0.218,0.362,0.338,0.325,0.178,-,south-southeast,6.4,No
2017/06/20,12:50,0.348,0.220,0.358,0.336,0.325,0.177,-,south-southeast,5.9,No
2017/06/20,13:00,0.351,0.219,0.356,0.334,0.323,0.177,-,south-southeast,7.4,No
2017/06/20,13:10,0.355,0.217,0.356,0.332,0.321,0.177,-,south,7.3,No
2017/06/20,13:20,0.352,0.218,0.356,0.337,0.320,0.178,-,south,6.9,No
2017/06/20,13:30,0.348,0.219,0.361,0.336,0.326,0.178,-,south,8.4,No
2017/06/20,13:40,0.351,0.217,0.361,0.334,0.323,0.177,-,south,7.9,No
2017/06/20,13:50,0.354,0.216,0.358,0.335,0.322,0.177,-,south,7.8,No
2017/06/20,14:00,0.354,0.220,0.357,0.338,0.321,0.178,-,south,10.2,No
2017/06/20,14:10,0.352,0.221,0.357,0.339,0.323,0.177,-,south,10.9,No
2017/06/20,14:20,0.351,0.218,0.361,0.334,0.325,0.177,-,south,10.3,No
2017/06/20,14:30,0.350,0.217,0.362,0.334,0.325,0.177,-,south,9.8,No
2017/06/20,14:40,0.354,0.219,0.358,0.337,0.323,0.179,-,south,10.1,No
2017/06/20,14:50,0.354,0.221,0.357,0.337,0.320,0.179,-,south,9.9,No
2017/06/20,15:00,0.352,0.219,0.358,0.335,0.321,0.178,0.109,south,8.9,No
2017/06/20,15:10,0.350,0.218,0.358,0.336,0.327,0.177,0.110,south,9.2,No
2017/06/20,15:20,0.355,0.220,0.363,0.339,0.327,0.178,0.110,south,11.0,No
2017/06/20,15:30,0.353,0.221,0.361,0.336,0.324,0.178,0.108,south,9.0,No
2017/06/20,15:40,0.354,0.218,0.359,0.341,0.322,0.178,0.108,south-southeast,7.8,No
2017/06/20,15:50,0.356,0.219,0.359,0.338,0.321,0.177,0.108,south,8.3,No
2017/06/20,16:00,0.354,0.220,0.364,0.337,0.326,0.177,0.108,south,8.6,No
2017/06/20,16:10,0.350,0.218,0.362,0.341,0.326,0.178,0.108,south,10.0,No
2017/06/20,16:20,0.357,0.219,0.360,0.337,0.324,0.178,0.109,south,12.1,No
2017/06/20,16:30,0.354,0.221,0.363,0.338,0.322,0.177,0.109,south,10.7,No
2017/06/20,16:40,0.350,0.218,0.361,0.340,0.326,0.178,0.110,south,11.0,No
2017/06/20,16:50,0.355,0.221,0.362,0.335,0.327,0.178,0.109,south,10.4,No
2017/06/20,17:00,0.355,0.218,0.363,0.339,0.323,0.178,0.109,south,10.4,No
2017/06/20,17:10,0.351,0.219,0.360,0.338,0.322,0.178,0.108,south,9.8,No
2017/06/20,17:20,0.355,0.220,0.364,0.337,0.327,0.179,0.109,south,12.1,No
2017/06/20,17:30,0.353,0.219,0.361,0.340,0.327,0.178,0.109,south,12.0,No
2017/06/20,17:40,0.352,0.220,0.362,0.336,0.323,0.177,0.110,south,11.5,No
2017/06/20,17:50,0.354,0.219,0.364,0.339,0.326,0.179,0.109,south,11.2,No
2017/06/20,18:00,0.353,0.219,0.360,0.337,0.326,0.178,0.108,south,10.8,No
2017/06/20,18:10,0.354,0.220,0.363,0.337,0.323,0.178,0.110,south,10.5,No
2017/06/20,18:20,0.354,0.218,0.363,0.339,0.326,0.178,0.109,south,10.6,No
2017/06/20,18:30,0.352,0.219,0.363,0.336,0.326,0.179,0.109,south,11.2,No
2017/06/20,18:40,0.356,0.219,0.363,0.340,0.325,0.178,0.109,south,11.7,No
2017/06/20,18:50,0.352,0.220,0.362,0.337,0.328,0.177,0.109,south-southwest,12.0,No
2017/06/20,19:00,0.356,0.219,0.363,0.340,0.323,0.179,0.109,south,11.2,No
2017/06/20,19:10,0.355,0.221,0.360,0.339,0.328,0.177,0.109,south,11.3,No
2017/06/20,19:20,0.355,0.219,0.365,0.337,0.325,0.178,0.109,south-southwest,12.6,No
2017/06/20,19:30,0.356,0.220,0.360,0.340,0.325,0.179,0.109,south-southwest,12.0,No
2017/06/20,19:40,0.351,0.219,0.363,0.336,0.327,0.178,0.109,south,11.1,No
2017/06/20,19:50,0.356,0.220,0.362,0.341,0.324,0.179,0.108,south,11.4,No
2017/06/20,20:00,0.353,0.219,0.360,0.337,0.325,0.177,0.108,south,10.6,No
2017/06/20,20:10,0.354,0.219,0.363,0.339,0.323,0.178,0.109,south,11.0,No
2017/06/20,20:20,0.355,0.220,0.361,0.337,0.327,0.177,0.108,south-southwest,11.8,No
2017/06/20,20:30,0.353,0.219,0.364,0.337,0.322,0.178,0.109,south,10.1,No
2017/06/20,20:40,0.355,0.220,0.362,0.338,0.326,0.178,0.108,south-southwest,10.7,No
2017/06/20,20:50,0.352,0.220,0.363,0.337,0.324,0.178,0.109,south-southwest,10.3,No
2017/06/20,21:00,0.356,0.220,0.362,0.340,0.327,0.179,0.109,south-southwest,11.5,No
2017/06/20,21:10,0.352,0.219,0.362,0.337,0.324,0.178,0.109,south-southwest,10.3,No
2017/06/20,21:20,0.354,0.221,0.364,0.341,0.324,0.178,0.108,south-southwest,10.1,No
2017/06/20,21:30,0.353,0.220,0.361,0.337,0.327,0.178,0.110,south,9.2,No
2017/06/20,21:40,0.353,0.221,0.365,0.339,0.323,0.177,0.108,south,8.7,No
2017/06/20,21:50,0.356,0.220,0.360,0.338,0.327,0.178,0.109,south-southwest,8.9,No
2017/06/20,22:00,0.352,0.220,0.363,0.338,0.323,0.178,0.109,south-southwest,7.8,No
2017/06/20,22:10,0.355,0.219,0.361,0.337,0.327,0.179,0.109,south-southwest,8.8,No
2017/06/20,22:20,0.353,0.221,0.364,0.337,0.326,0.178,0.109,south-southwest,9.8,No
2017/06/20,22:30,0.355,0.218,0.361,0.340,0.325,0.178,0.108,south-southwest,9.2,No
2017/06/20,22:40,0.354,0.221,0.362,0.336,0.326,0.178,0.109,south-southwest,8.8,No
2017/06/20,22:50,0.353,0.219,0.363,0.339,0.323,0.178,0.109,south-southwest,9.2,No
2017/06/20,23:00,0.355,0.220,0.361,0.338,0.326,0.179,0.109,south-southwest,8.7,No
2017/06/20,23:10,0.352,0.219,0.363,0.337,0.324,0.178,0.109,south-southwest,8.6,No
2017/06/20,23:20,0.356,0.220,0.361,0.340,0.326,0.179,0.110,south-southwest,7.1,No
2017/06/20,23:30,0.351,0.220,0.363,0.337,0.323,0.178,0.110,south-southwest,7.1,No
2017/06/20,23:40,0.355,0.221,0.363,0.339,0.326,0.178,0.109,south-southwest,8.5,No
2017/06/20,23:50,0.353,0.220,0.363,0.337,0.327,0.179,0.110,south-southwest,10.1,No
